| time (UTC) | temp F | wind direction | speed knots | gust knots | rain 1hr in | rain 24hr in | rain mn in | humidity % | barometer mb |
| 20260506221558 | 86 | 32 | 1.7 | 9.6 | 0.00 | 0.00 | 0.00 | 65 | 1009.1 |
| 20260506220108 | 87 | 56 | 4.3 | 9.6 | 0.00 | 0.00 | 0.00 | 65 | 1008.8 |
| 20260506214556 | 87 | 98 | 4.3 | 13.0 | 0.00 | 0.00 | 0.00 | 65 | 1008.7 |
| 20260506213038 | 88 | 57 | 3.5 | 12.2 | 0.00 | 0.00 | 0.00 | 64 | 1008.7 |
| 20260506211545 | 88 | 71 | 4.3 | 11.3 | 0.00 | 0.00 | 0.00 | 64 | 1008.4 |
| 20260506210025 | 89 | 26 | 4.3 | 13.9 | 0.00 | 0.00 | 0.00 | 65 | 1008.4 |
| 20260506204525 | 89 | 78 | 6.1 | 17.4 | 0.00 | 0.00 | 0.00 | 64 | 1008.4 |
| 20260506203025 | 89 | 108 | 6.1 | 13.0 | 0.00 | 0.00 | 0.00 | 61 | 1008.4 |
| 20260506201521 | 90 | 19 | 6.1 | 13.9 | 0.00 | 0.00 | 0.00 | 61 | 1008.3 |
| 20260506200017 | 0 | 0.0 | 0.0 | 0.00 | 0.00 | 0.00 | 1008.3 | ||
| 20260506194615 | 0 | 0.0 | 0.0 | 0.00 | 0.00 | 0.00 | 1008.4 | ||
| 20260506193008 | 0 | 0.0 | 0.0 | 0.00 | 0.00 | 0.00 | 1008.3 | ||
| 20260506191504 | 0 | 0.0 | 0.0 | 0.00 | 0.00 | 0.00 | 1008.5 | ||
| 20260506190043 | 0 | 0.0 | 0.0 | 0.00 | 0.00 | 0.00 | 1008.6 | ||
| 20260506184539 | 0 | 0.0 | 0.0 | 0.00 | 0.00 | 0.00 | 1008.7 | ||
| 20260506183021 | 0 | 0.0 | 0.0 | 0.00 | 0.00 | 0.00 | 1008.9 | ||
| 20260506181517 | 0 | 0.0 | 0.0 | 0.00 | 0.00 | 0.00 | 1009.2 | ||
| 20260506180012 | 0 | 0.0 | 0.0 | 0.00 | 0.00 | 0.00 | 1009.3 | ||
| 20260506174508 | 0 | 0.0 | 0.0 | 0.00 | 0.00 | 0.00 | 1009.7 | ||
| 20260506173004 | 0 | 0.0 | 0.0 | 0.00 | 0.00 | 0.00 | 1009.9 | ||
| 20260506171606 | 0 | 0.0 | 0.0 | 0.00 | 0.00 | 0.00 | 1010.1 | ||
| 20260506170104 | 0 | 0.0 | 0.0 | 0.00 | 0.00 | 0.00 | 1010.4 | ||
| 20260506164552 | 0 | 0.0 | 0.0 | 0.00 | 0.00 | 0.00 | 1010.8 | ||
| 20260506163035 | 0 | 0.0 | 0.0 | 0.00 | 0.00 | 0.00 | 1011.1 | ||
| 20260506161532 | 0 | 0.0 | 0.0 | 0.00 | 0.00 | 0.00 | 1011.5 | ||
| 20260506160036 | 0 | 0.0 | 0.0 | 0.00 | 0.00 | 0.00 | 1011.7 | ||
| 20260506154524 | 0 | 0.0 | 0.0 | 0.00 | 0.03 | 0.00 | 1011.9 | ||
| 20260506153117 | 0 | 0.0 | 0.0 | 0.00 | 0.03 | 0.00 | 1012.1 | ||
| 20260506151515 | 0 | 0.0 | 0.0 | 0.00 | 0.03 | 0.00 | 1012.3 | ||
| 20260506150008 | 0 | 0.0 | 0.0 | 0.00 | 0.03 | 0.00 | 1012.6 | ||
| 20260506144503 | 0 | 0.0 | 0.0 | 0.00 | 0.03 | 0.00 | 1012.8 | ||
| 20260506143042 | 0 | 0.0 | 0.0 | 0.00 | 0.03 | 0.00 | 1012.9 | ||
| 20260506141538 | 0 | 0.0 | 0.0 | 0.00 | 0.03 | 0.00 | 1013.1 | ||
| 20260506134522 | 86 | 84 | 2.6 | 9.6 | 0.00 | 0.03 | 0.03 | 68 | 1013.3 |
| 20260506133017 | 85 | 84 | 1.7 | 7.0 | 0.00 | 0.03 | 0.03 | 71 | 1013.5 |
| 20260506131536 | 84 | 157 | 2.6 | 8.7 | 0.00 | 0.03 | 0.03 | 72 | 1013.5 |
| 20260506130027 | 84 | 87 | 1.7 | 5.2 | 0.00 | 0.03 | 0.03 | 72 | 1013.4 |
| 20260506124516 | 84 | 88 | 1.7 | 6.1 | 0.00 | 0.03 | 0.03 | 73 | 1013.4 |
| 20260506123015 | 82 | 149 | 2.6 | 7.0 | 0.00 | 0.03 | 0.03 | 76 | 1013.2 |
| 20260506121515 | 81 | 44 | 2.6 | 6.1 | 0.00 | 0.03 | 0.03 | 78 | 1013.0 |
| 20260506120007 | 80 | 43 | 2.6 | 7.0 | 0.00 | 0.03 | 0.03 | 81 | 1012.9 |
| 20260506114502 | 80 | 66 | 3.5 | 8.7 | 0.00 | 0.03 | 0.03 | 81 | 1013.0 |
| 20260506113001 | 80 | 64 | 0.9 | 5.2 | 0.00 | 0.03 | 0.03 | 84 | 1012.8 |
| 20260506111600 | 79 | 69 | 1.7 | 5.2 | 0.00 | 0.03 | 0.03 | 85 | 1012.7 |
| 20260506110104 | 78 | 85 | 0.9 | 4.3 | 0.00 | 0.03 | 0.03 | 88 | 1012.5 |
| 20260506104558 | 77 | 73 | 0.9 | 2.6 | 0.00 | 0.03 | 0.03 | 90 | 1012.4 |
| 20260506103057 | 76 | 65 | 0.0 | 1.7 | 0.00 | 0.03 | 0.03 | 91 | 1012.1 |
| 20260506101556 | 76 | 360 | 0.0 | 1.7 | 0.00 | 0.03 | 0.03 | 91 | 1011.9 |
| 20260506100044 | 76 | 63 | 0.0 | 0.0 | 0.00 | 0.03 | 0.03 | 91 | 1011.9 |
| 20260506094554 | 76 | 63 | 0.0 | 1.7 | 0.00 | 0.03 | 0.03 | 90 | 1011.9 |
| 20260506093042 | 76 | 63 | 0.0 | 1.7 | 0.00 | 0.03 | 0.03 | 90 | 1011.8 |
| 20260506091543 | 76 | 63 | 0.0 | 0.9 | 0.00 | 0.03 | 0.03 | 90 | 1011.7 |
| 20260506090043 | 77 | 63 | 0.0 | 1.7 | 0.00 | 0.03 | 0.03 | 89 | 1011.6 |
| 20260506084543 | 77 | 63 | 0.0 | 3.5 | 0.00 | 0.03 | 0.03 | 89 | 1011.3 |
| 20260506083040 | 77 | 65 | 0.0 | 3.5 | 0.00 | 0.03 | 0.03 | 89 | 1011.3 |
| 20260506081539 | 77 | 49 | 0.9 | 3.5 | 0.00 | 0.03 | 0.03 | 89 | 1011.2 |
| 20260506073009 | 78 | 47 | 0.0 | 3.5 | 0.00 | 0.03 | 0.03 | 87 | 1011.2 |
| 20260506071511 | 77 | 42 | 0.9 | 4.3 | 0.00 | 0.03 | 0.03 | 87 | 1011.3 |
| 20260506061506 | 77 | 41 | 0.9 | 4.3 | 0.00 | 0.03 | 0.03 | 86 | 1011.0 |
| 20260506044559 | 78 | 68 | 0.0 | 7.0 | 0.00 | 0.03 | 0.03 | 84 | 1011.8 |
| 20260506043049 | 78 | 63 | 0.9 | 3.5 | 0.00 | 0.03 | 0.03 | 84 | 1011.8 |
| 20260506041550 | 79 | 56 | 1.7 | 4.3 | 0.00 | 0.03 | 0.03 | 83 | 1011.8 |
| 20260506040048 | 79 | 53 | 1.7 | 6.1 | 0.00 | 0.03 | 0.03 | 83 | 1011.7 |
| 20260506034548 | 79 | 61 | 0.9 | 4.3 | 0.00 | 0.03 | 0.03 | 82 | 1011.8 |
| 20260506033037 | 79 | 102 | 0.0 | 4.3 | 0.00 | 0.03 | 0.03 | 82 | 1011.9 |
| 20260506031537 | 79 | 28 | 0.9 | 2.6 | 0.00 | 0.03 | 0.03 | 82 | 1012.1 |
| 20260506030038 | 80 | 92 | 2.6 | 6.1 | 0.00 | 0.03 | 0.03 | 81 | 1012.2 |
| 20260506024545 | 80 | 43 | 0.9 | 7.8 | 0.00 | 0.03 | 0.03 | 81 | 1012.2 |
| 20260506023035 | 80 | 61 | 1.7 | 5.2 | 0.00 | 0.03 | 0.03 | 81 | 1012.2 |
| 20260506021534 | 80 | 61 | 2.6 | 5.2 | 0.00 | 0.03 | 0.03 | 81 | 1012.1 |
| 20260506020033 | 80 | 52 | 2.6 | 6.1 | 0.00 | 0.03 | 0.03 | 81 | 1012.2 |
| 20260506014536 | 81 | 22 | 2.6 | 7.8 | 0.00 | 0.03 | 0.03 | 81 | 1012.1 |
| 20260506013035 | 81 | 86 | 1.7 | 7.0 | 0.00 | 0.03 | 0.03 | 81 | 1011.9 |
| 20260506011513 | 80 | 176 | 1.7 | 10.4 | 0.00 | 0.03 | 0.03 | 81 | 1011.5 |
| 20260506010013 | 80 | 71 | 2.6 | 7.8 | 0.00 | 0.03 | 0.03 | 81 | 1011.3 |
| 20260506004600 | 80 | 126 | 2.6 | 7.8 | 0.00 | 0.03 | 0.03 | 81 | 1011.0 |
| 20260506003059 | 81 | 98 | 2.6 | 9.6 | 0.00 | 0.03 | 0.03 | 81 | 1010.7 |
| 20260506001608 | 81 | 117 | 0.9 | 7.8 | 0.00 | 0.03 | 0.03 | 81 | 1010.6 |
| 20260506000055 | 81 | 73 | 3.5 | 8.7 | 0.00 | 0.03 | 0.03 | 80 | 1010.2 |
| 20260505234556 | 81 | 98 | 2.6 | 10.4 | 0.00 | 0.03 | 0.03 | 80 | 1010.0 |
| 20260505233053 | 81 | 78 | 2.6 | 7.8 | 0.00 | 0.03 | 0.03 | 79 | 1009.8 |
| 20260505231601 | 82 | 80 | 2.6 | 9.6 | 0.00 | 0.03 | 0.03 | 78 | 1009.6 |
| 20260505230057 | 82 | 64 | 2.6 | 7.8 | 0.00 | 0.03 | 0.03 | 77 | 1009.3 |
| 20260505224537 | 83 | 28 | 4.3 | 9.6 | 0.00 | 0.03 | 0.03 | 75 | 1009.1 |
| 20260505223035 | 83 | 66 | 3.5 | 8.7 | 0.00 | 0.03 | 0.03 | 73 | 1009.0 |